Retour au catalogue

STARLINK-6202

ActifCommunicationsVLEO
NORAD 56896·PAYLOAD·🇺🇸 United States

Lancé Jun 12, 2023 depuis Cape Canaveral Space Force Station

Loading…

Prochains Passages (prochaines 24 heures)

TLE

FraisSource: CelesTrak SupGP

Époque: Sep 15, 2026, 01:51 UTC

1 56896C 23083W   26258.07756944  .00036988  00000+0  13395-2 0  2589
2 56896  43.0022  99.3501 0001927 274.6501 357.4469 15.27563778    18

Suivez STARLINK-6202 en temps réel avec AllMySat

Download on the App Store